Reflectivity
-19 -20 -20 -20 -20 -20 -20 -20 -20 -20 -20 -20 -20 -20 -20 -20 -20 -20 -20 -20 -20 -20 -20 -20 -20 -20 -20 -20 -20 -20 -20 -20 -20 -20 -20 -20 -20 -20 -20 -20 -20 -20 -20 -20 -20
-20 -20 -20 -20 -20 -20 -20 -20 -20 -20 -20 -20 -20 -20 -20 -20 -20 -20 -20 -20 -20 -20 -20 -20 -20 -20 -20 -20 -20 -20 -20 -20 -20 -20 -20 -20 -20 -20 -20 -20 -20 -20 -20 -20 -20
-20 -20 -20 -20 -20 -20 -20 -20 -20 -20 -20 -20 -20 -20 -20 -20 -20 -20 -20 -20 -20 -20 -20 -20 -20 -20 -20 -20 -20 -20 -20 -20 -20 -20 -20 -20 -20 -20 -20 -20 -20 -20 -20 -20 -20
-20 -20 -20 -20 -20 -20 -20 -20 -20 -20 -20 -20 -20 -20 -20 -20 -20 -20 -20 -20 -20 -20 -20 -20 -20 -20 -20 -20 -20 -20 -20 -20 -20 -20 -20 -20 -20 -20 -20 -20 -20 -20 -20 -20 -20
-20 -20 -20 -20 -20 -20 -20 -20 -20 -20 -20 -20 -20 -20 -20 -20 -20 -20 -20 -20 -20 -20 -20 -20 -20 -20 -20 -20 -20 -20 -20 -20 -20 -20 -20 -20 -20 -20 -20 -20 -20 -20 -20 -20 -20
-20 -20 -20 -20 -20 -20 -20 -20 -20 -20 -20 -20 -20 -20 -20 -20 -20 -20 -20 -20 -20 -20 -20 -20 -20 -20 -20 -20 -20 -20 -20 -20 -20 -20 -20 -20 -20 -20 -20 -20 -20 -20 -20 -20 -20
-20 -20 -20 -20 -20 -20 -20 -20 -20 -20 -20 -20 -20 -20 -20 -20 -20 -20 -20 -20 -20 -20 -20 -20 -20 -20 -20 -20 -20 -20 -20 -20 -20 -20 -20 -20 -20 -20 -20 -20 -20 -20 -20 -20 -20
-20 -20 -20 -20 -20 -20 -20 -20 -20 -20 -20 -20 -20 -20 -20 -20 -20 -20 -20 -20 -20 -20 -20 -20 -20 -20 -20 -20 -20 -20 -20 -20 -20 -20 -20 -20 -20 -20 -20 -20 -20 -20 -20 -20 -20
-20 -20 -20 -20 -20 -20 -20 -20 -20 -20 -20 -20 -20 -20 -20 -20 -20 -20 -20 -20 -20 -20 -20 -20 -20 -20 -20 -20 -20 -20 -20 -20 -20 -20 -20 -20 -20 -20 -20 -20 -20 -20 -20 -20 -20
-20 -20 -20 -20 -20 -20 -20 -20 -20 -20 -20 -20 -20 -20 -20 -20 -20 -20 -20 -20 -20 -20 -20 -20 -20 -20 -20 -20 -20 -20 -20 -20 -20 -20 -20 -20 -20 -20 -20 -20 -20 -20 -20 -20 -20
-20 -20 -20 -20 -20 -20 -20 -20 -20 -20 -20 -20 -20 -20 -20 -20 -20 -20 -20 -20 -20 -20 -20 -20 -20 -20 -20 -20 -20 -20 -20 -20 -20 -20 -20 -20 -20 -20 -20 -20 -20 -20 -20 -20 -20
-20 -20 -20 -20 -20 -20 -20 -20 -20 -20 -20 -20 -20 -20 -20 -20 -20 -20 -20 -20 -20 -20 -20 -20 -20 -20 -20 -20 -20 -20 -20 -20 -20 -20 -20 -20 -20 -20 -20 -20 -20 -20 -20 -20 -20
-20 -20 -20 -20 -20 -20 -20 -20 -20 -20 -20 -20 -20 -20 -20 -20 -20 -20 -20 -20 -20 -20 -20 -20 -20 -20 -20 -20 -20 -20 -20 -20 -20 -20 -20 -20 -20 -20 -20 -20 -20 -20 -20 -20 -20
-20 -20 -20 -20 -20 -20 -20 -20 -20 -20 -20 -20 -20 -20 -20 -20 -20 -20 -20 -20 -20 -20 -20 -20 -20 -20 -20 -20 -20 -20 -20 -20 -20 -20 -20 -20 -20 -20 -20 -20 -20 -20 -20 -20 -20
-20 -20 -20 -20 -20 -20 -20 -20 -20 -20 -20 -20 -20 -20 -20 -20 -20 -20 -20 -20 -20 -20 -20 -20 -20 -20 -20 -20 -20 -20 -20 -20 -20 -20 -20 -20 -20 -20 -20 -20 -20 -20 -20 -20 -20
-20 -20 -20 -20 -20 -20 -20 -20 -20 -20 -20 -20 -20 -20 -20 -20 -20 -20 -20 -20 -20 -20 -20 -20 -20 -20 -20 -20 -20 -20 -20 -20 -20 -20 -20 -20 -20 -20 -20 -20 -20 -20 -20 -20 -20
-20 -20 -20 -20 -20 -20 -20 -20 -20 -20 -20 -20 -20 -20 -20 -20 -20 -20 -20 -20 -20 -20 -20 -20 -20 -20 -20 -20 -20 -20 -20 -20 -20 -20 -20 -20 -20 -20 -20 -20 -20 -20 -20 -20 -20
-20 -20 -20 -20 -20 -20 -20 -20 -20 -20 -20 -20 -20 -20 -20 -20 -20 -20 -20 -20 -20 -20 -20 -20 -20 -20 -20 -20 -20 -20 -20 -20 -20 -20 -20 -20 -20 -20 -20 -20 -20 -20 -20 -20 -20
-20 -20 -20 -20 -20 -20 -20 -20 -20 -20 -20 -20 -20 -20 -20 -20 -20 -20 -20 -20 -20 -20 -20 -20 -20 -20 -20 -20 -20 -20 -20 -20 -20 -20 -20 -20 -20 -20 -20 -20 -20 -20 -20 -20 -20
-20 -20 -20 -20 -20 -20 -20 -20 -20 -20 -20 -20 -20 -20 -20 -20 -20 -20 -20 -20 -20 -20 -20 -20 -20 -20 -20 -20 -20 -20 -20 -20 -20 -20 -20 -20 -20 -20 -20 -20 -20 -20 -20 -20 -20
-20 -20 -20 -20 -20 -20 -20 -20 -20 -20 -20 -20 -20 -20 -20 -20 -20 -20 -20 -20 -20 -20 -20 -20 -20 -20 -20 -20 -20 -20 -20 -20 -20 -20 -20 -20 -20 -20 -20 -20 -20 -20 -20 -20 -20
-20 -20 -20 -20 -20 -20 -20 -20 -20 -20 -20 -20 -20 -20 -20 -20 -20 -20 -20 -20 -20 -20 -20 -20 -20 -20 -20 -20 -20 -20 -20 -20 -20 -20 -20 -20 -20 -20 -20 -20 -20 -20 -20 -20 -20
-20 -20 -20 -20 -20 -20 -20 -20 -20 -20 -20 -20 -20 -20 -20 -20 -20 -20 -20 -20 -20 -20 -20 -20 -20 -20 -20 -20 -20 -20 -20 -20 -20 -20 -20 -20 -20 -20 -20 -20 -20 -20 -20 -20 -20
-20 -20 -20 -20 -20 -20 -20 -20 -20 -20 -20 -20 -20 -20 -20 -20 -20 -20 -20 -20 -20 -20 -20 -20 -20 -20 -20 -20 -20 -20 -20 -20 -20 -20 -20 -20 -20 -20 -20 -20 -20 -20 -20 -20 -20
-20 -20 -20 -20 -20 -20 -20 -20 -20 -20 -20 -20 -20 -20 -20 -20 -20 -20 -20 -20 -20 -20 -20 -20 -20 -20 -20 -20 -20 -20 -20 -20 -20 -20 -20 -20 -20 -20 -20 -20 -20 -20 -20 -20 -20
-20 -20 -20 -20 -20 -20 -20 -20 -20 -20 -20 -20 -20 -20 -20 -20 -20 -20 -20 -20 -20 -20 -20 -20 -20 -20 -20 -20 -20 -20 -20 -20 -20 -20 -20 -20 -20 -20 -20 -20 -20 -20 -20 -20 -20
-20 -20 -20 -20 -20 -20 -20 -20 -20 -20 -20 -20 -20 -20 -20 -20 -20 -20 -20 -20 -20 -20 -20 -20 -20 -20 -20 -20 -20 -20 -20 -20 -20 -20 -20 -20 -20 -20 -20 -20 -20 -20 -20 -20 -20
Wind_Speed
3 1 1 2 1 2 2 4 4 5 6 7 9 11 10 13 7 5 13 6 10 16 2 2 8 6 7 7 7 2 6 5 8 9 6 8 5 2 2 6 3 3 3 5 16
3 1 2 2 1 3 3 4 5 7 8 9 9 10 10 8 3 9 4 17 14 5 5 4 6 7 7 6 6 7 4 3 2 4 6 9 3 9 5 4 3 5 9 12 12
2 2 2 1 1 2 3 4 6 8 9 9 11 12 9 4 6 5 13 20 12 5 7 5 5 7 7 5 9 6 4 3 4 5 9 8 5 3 10 4 7 14 14 11 10
3 3 2 3 2 2 3 5 7 7 9 10 11 11 10 3 4 6 20 18 7 4 5 6 7 7 6 6 4 9 7 4 4 5 6 8 9 5 3 1 6 15 15 11 10
3 4 3 2 2 3 5 6 8 7 9 10 11 10 5 8 3 9 18 11 7 5 7 4 7 5 6 5 3 8 3 5 6 7 6 7 3 4 3 1 11 14 11 11 10
5 4 3 0 2 4 7 8 9 7 8 10 11 5 7 9 4 9 9 6 9 8 10 9 6 9 9 6 6 3 8 6 3 3 4 4 2 0 3 8 13 13 12 11 11
6 5 1 2 3 6 8 9 9 7 8 10 10 5 10 3 2 7 10 6 5 4 7 4 6 6 6 6 4 5 5 2 2 3 3 4 3 7 9 12 13 13 11 10 9
6 4 2 4 6 8 11 11 10 7 8 5 6 5 4 1 1 6 7 6 7 9 10 8 10 12 6 5 4 4 3 1 2 4 1 0 5 5 14 16 15 14 11 9 8
5 4 4 4 8 10 11 11 8 8 5 4 5 6 3 4 5 6 6 4 3 4 6 5 8 6 3 4 3 4 1 2 2 6 4 3 5 4 13 15 15 14 12 10 9
4 4 3 5 8 11 13 5 5 5 5 3 3 6 6 2 4 4 4 4 6 2 4 9 6 5 4 3 1 2 1 3 4 4 4 4 15 5 13 15 17 14 11 11 11
3 3 4 7 9 11 5 4 7 8 11 3 0 3 2 6 3 7 4 1 4 10 6 5 7 3 1 1 2 3 2 3 3 4 4 8 13 10 13 14 14 13 12 12 12
2 3 5 7 9 8 3 6 3 4 6 2 1 1 0 1 3 10 4 5 6 4 4 6 3 2 3 2 2 2 2 4 3 3 5 5 16 12 11 12 17 15 13 14 9
2 4 6 6 8 5 4 5 1 4 5 3 1 2 2 4 3 8 5 3 5 5 4 5 2 1 2 2 1 2 3 2 4 0 2 7 8 3 1 4 6 8 8 11 15
5 5 7 6 7 0 3 3 3 1 6 5 3 4 4 2 5 2 3 3 6 4 3 3 2 2 1 1 2 3 1 2 3 2 3 4 6 3 2 7 6 10 11 11 13
8 6 4 7 5 3 1 4 1 4 3 0 3 1 2 5 0 6 2 5 4 3 3 1 1 2 1 1 2 3 3 1 1 2 3 3 1 7 3 5 4 10 11 10 10
9 6 2 4 3 1 4 2 3 7 3 0 1 3 3 6 4 6 6 8 3 4 3 1 1 1 0 1 1 0 1 4 3 2 1 1 1 7 3 3 2 2 8 10 11
9 7 5 1 1 3 1 4 6 4 2 1 1 2 3 4 5 6 6 7 3 2 4 4 0 1 1 1 0 3 4 4 5 4 3 1 1 10 3 2 3 4 6 10 11
7 6 4 2 3 1 4 6 1 1 4 0 2 2 3 2 3 5 3 2 4 2 3 2 4 1 3 2 1 3 2 4 4 3 6 1 7 5 2 2 3 3 5 11 11
4 3 3 4 4 2 6 3 6 5 3 6 2 2 2 1 2 3 2 3 2 0 3 2 2 1 4 1 2 0 3 2 4 2 2 3 7 7 2 4 2 1 7 11 11
3 2 2 7 3 5 6 5 3 2 3 2 5 3 4 2 2 2 3 2 3 1 2 4 2 1 1 2 4 0 4 2 3 2 5 5 6 7 5 5 7 8 11 11 10
4 3 3 5 2 6 3 6 4 3 2 4 6 4 3 4 5 3 4 2 3 3 2 4 2 1 1 4 6 2 1 5 4 2 3 5 8 7 6 5 7 10 12 14 13
3 1 3 2 4 1 3 4 1 3 1 1 3 2 6 6 3 4 6 2 4 5 5 3 4 3 4 1 0 1 4 4 4 4 0 0 11 3 5 6 6 6 10 13 13
3 2 3 4 3 2 3 2 2 4 4 4 4 1 1 6 2 3 3 1 4 5 7 7 0 3 4 2 2 3 4 4 4 3 7 5 10 4 4 6 5 6 8 11 12
3 1 4 5 1 6 4 4 4 2 2 2 3 2 3 2 1 5 4 3 2 3 3 3 3 6 7 5 4 4 5 5 4 4 4 10 11 13 6 9 6 6 9 12 13
3 2 3 2 2 2 4 5 4 5 2 3 1 5 6 4 3 5 3 1 1 4 2 3 5 5 7 9 4 6 8 9 10 6 9 5 8 17 13 7 5 9 10 12 12
4 3 1 1 0 4 3 7 9 4 8 5 5 6 6 6 7 8 8 5 6 2 5 1 2 2 6 2 6 7 9 11 11 4 13 19 24 17 6 1 4 8 14 15 14
0 2 4 1 2 3 5 6 7 6 4 0 5 6 5 6 4 2 5 5 5 8 6 4 5 2 6 2 7 8 8 12 6 6 7 8 12 4 5 7 6 10 15 16 14
Wind_Direction
76 98 191 110 73 276 306 311 328 348 340 341 335 329 331 331 352 29 44 281 305 308 301 358 38 26 36 58 39 108 76 137 164 173 155 160 144 70 71 116 78 15 145 136 142
86 129 87 67 114 297 333 324 342 341 338 343 336 326 334 334 57 45 160 338 332 318 51 50 28 28 54 29 26 53 80 127 94 131 151 158 154 148 146 132 75 99 101 124 140
65 67 83 99 48 306 326 338 346 335 336 336 339 332 336 318 60 318 336 340 345 43 65 91 86 61 62 31 6 17 90 138 20 101 119 132 129 135 140 198 191 172 158 153 154
71 80 88 55 349 296 328 332 328 332 328 341 339 330 326 39 80 283 334 331 337 71 70 58 42 56 63 51 2 93 41 80 126 106 115 145 134 131 187 144 174 164 160 160 162
81 84 79 63 273 341 312 320 315 328 337 344 343 345 45 45 16 307 324 342 29 59 47 89 61 106 86 88 69 77 115 52 88 88 90 122 130 156 220 129 136 146 163 167 169
77 81 72 61 340 315 304 314 305 327 339 347 347 349 70 78 306 321 333 20 33 58 52 43 100 109 85 58 50 87 96 112 71 113 134 131 147 185 178 145 141 162 178 176 176
93 81 82 359 318 306 306 300 298 319 346 344 359 69 65 149 347 324 24 30 356 67 82 50 127 74 136 102 170 138 87 102 158 178 165 140 198 224 160 167 168 188 185 183 177
95 105 67 352 319 314 300 296 300 328 340 334 1 67 97 270 223 11 337 38 45 64 92 114 97 92 68 121 59 69 71 89 181 177 125 171 268 173 167 171 191 197 197 188 178
95 89 56 334 321 313 300 295 300 339 339 325 54 88 106 340 32 316 26 72 65 64 64 90 67 90 99 88 61 19 163 235 259 201 134 200 262 166 177 188 201 204 201 197 183
78 50 21 336 327 317 301 256 314 26 356 28 60 54 3 326 302 335 340 48 64 72 42 40 54 76 47 59 230 237 253 254 260 193 203 200 255 204 194 199 211 209 203 205 203
45 349 360 345 328 319 335 19 21 356 37 83 250 116 325 291 308 355 353 42 29 55 39 12 64 81 170 215 159 130 183 256 247 176 202 233 263 250 203 213 223 218 207 211 212
345 326 357 329 324 327 56 89 175 163 74 26 86 68 280 269 49 346 9 70 55 56 344 27 86 201 153 48 170 183 216 266 267 147 198 314 275 255 193 219 220 216 210 211 195
323 352 340 321 319 44 60 123 37 132 94 349 3 45 319 57 79 333 28 87 84 63 20 128 187 244 172 39 46 211 199 245 250 336 219 312 281 278 242 247 217 215 203 205 202
350 353 342 321 57 277 39 335 326 195 75 310 340 349 5 80 50 333 9 107 39 138 123 106 330 124 112 206 128 311 218 298 310 21 286 3 294 301 324 276 229 221 201 201 197
347 345 0 51 148 71 314 322 285 61 30 238 331 296 20 92 248 0 1 31 100 122 108 299 49 56 127 263 148 263 19 338 13 121 9 21 350 270 346 309 270 229 211 203 186
342 348 337 24 58 14 321 314 47 44 266 84 344 355 50 16 29 315 33 36 128 93 40 97 66 83 278 -0 121 357 88 55 54 78 327 348 60 282 258 222 281 288 208 177 163
342 14 61 59 142 326 14 48 36 127 22 226 151 51 75 8 37 31 31 18 65 52 359 347 262 47 29 25 32 54 35 336 354 -0 256 275 267 254 243 230 247 270 202 171 157
347 11 6 62 326 337 57 47 225 215 203 351 128 82 95 3 27 26 74 62 33 71 97 95 324 42 -0 76 161 36 106 133 296 302 300 12 236 258 167 206 266 300 169 156 157
33 357 24 340 342 55 73 63 216 201 172 156 72 103 2 42 121 86 67 169 204 101 142 133 282 76 54 88 54 19 51 158 100 126 306 265 286 274 235 253 260 174 158 169 171
74 39 308 321 344 61 77 230 223 205 145 145 175 175 186 217 158 170 189 199 174 203 208 199 354 81 147 114 51 158 149 88 36 315 298 285 279 250 285 265 226 215 197 186 179
56 40 277 338 55 53 171 226 234 232 174 168 200 144 185 191 186 207 192 186 196 173 177 141 109 259 147 189 174 77 22 48 113 146 206 300 271 215 231 221 230 228 199 190 185
97 26 302 14 64 17 172 199 229 190 167 216 134 132 172 166 171 207 209 236 175 164 164 198 139 252 222 133 16 170 191 160 137 211 145 48 272 189 226 242 240 254 199 185 181
111 238 323 85 166 233 267 252 233 173 209 183 183 195 159 169 199 194 191 136 183 167 169 189 71 356 350 25 9 222 190 128 98 72 203 162 258 172 242 257 247 241 193 176 170
89 10 329 50 11 139 169 227 220 231 203 163 146 114 119 151 114 202 194 229 207 190 124 94 147 172 202 210 147 209 190 180 149 158 183 232 282 284 253 250 231 214 187 175 176
47 238 181 261 290 191 165 152 162 206 232 190 225 210 171 156 163 206 152 137 284 168 84 151 220 188 252 248 217 227 208 181 198 198 203 278 224 273 286 269 252 196 172 176 184
141 139 11 174 187 151 177 218 193 181 156 232 204 182 183 170 191 194 156 197 201 189 175 74 245 173 281 172 192 258 223 203 221 234 262 265 279 275 275 153 214 191 179 191 196
91 1 113 261 145 127 224 220 221 153 220 322 188 131 179 220 153 102 105 72 147 152 176 152 148 106 269 7 312 294 221 183 189 205 176 210 243 160 252 237 227 198 194 196 195